This is the latest recevied weather packets stored in our database for station/object AE5TC. If no packets are shown the sender has not sent any weather packets the latest 10 day(s).
| Time | Temp. | Humidity | Pressure | Rain* | Wind** | Luminosity | Snow |
|---|---|---|---|---|---|---|---|
| 1778067765 | 18.33° C | 99% | 1013.5 hPa | 0 mm | - | 44 W/m² | - |
| 1778067463 | 17.78° C | 99% | 1013.3 hPa | 0 mm | - | 37 W/m² | - |
| 1778067161 | 17.78° C | 99% | 1013.3 hPa | 0 mm | - | 32 W/m² | - |
| 1778066857 | 17.22° C | 99% | 1013.2 hPa | 0 mm | - | 27 W/m² | - |
| 1778066555 | 17.22° C | 99% | 1013.3 hPa | 0 mm | - | 21 W/m² | - |
| 1778066252 | 17.22° C | 99% | 1013.3 hPa | 0 mm | - | 15 W/m² | - |
| 1778065950 | 17.22° C | 99% | 1013.2 hPa | 0 mm | - | 11 W/m² | - |
| 1778065646 | 16.67° C | 99% | 1013.1 hPa | 0 mm | - | 8 W/m² | - |
| 1778065344 | 16.67° C | 99% | 1013.3 hPa | 0 mm | - | 5 W/m² | - |
| 1778065040 | 16.67° C | 99% | 1013.1 hPa | 0 mm | - | 2 W/m² | - |
| 1778064738 | 16.11° C | 99% | 1013.1 hPa | 0 mm | - | 1 W/m² | - |
| 1778064436 | 16.11° C | 99% | 1013 hPa | 0 mm | - | 1 W/m² | - |
| 1778064133 | 16.11° C | 99% | 1013 hPa | 0 mm | - | 0 W/m² | - |
| 1778063830 | 16.11° C | 99% | 1013 hPa | 0 mm | - | 0 W/m² | - |
| 1778063527 | 16.11° C | 99% | 1013.2 hPa | 0 mm | - | 0 W/m² | - |
| 1778063225 | 16.11° C | 99% | 1013 hPa | 0 mm | - | 0 W/m² | - |
| 1778062923 | 16.11° C | 99% | 1012.9 hPa | 0 mm | - | 0 W/m² | - |
| 1778062619 | 16.11° C | 99% | 1013.1 hPa | 0 mm | - | 0 W/m² | - |
| 1778062315 | 16.11° C | 99% | 1013.1 hPa | 0 mm | - | 0 W/m² | - |
| 1778062014 | 16.67° C | 99% | 1013 hPa | 0 mm | - | 0 W/m² | - |
| 1778061712 | 16.67° C | 99% | 1013.2 hPa | 0 mm | - | 0 W/m² | - |
| 1778061410 | 16.67° C | 99% | 1013 hPa | 0 mm | - | 0 W/m² | - |
| 1778061106 | 16.67° C | 99% | 1013.1 hPa | 0 mm | - | 0 W/m² | - |
| 1778060804 | 16.67° C | 99% | 1013.1 hPa | 0 mm | - | 0 W/m² | - |
| 1778060502 | 16.67° C | 99% | 1013.1 hPa | 0 mm | - | 0 W/m² | - |
* Rain latest hour (hover to see other rain measurements)
** Current wind speed in m/s (hover to see current wind gust speed)